Time,TemperatureF,DewpointF,PressureIn,WindDirection,WindDirectionDegrees,WindSpeedMPH,WindSpeedGustMPH,Humidity,HourlyPrecipIn,Conditions,Clouds,dailyrainin,SoftwareType,DateUTC
2013-02-18 00:11:00,33.3,13.0,30.35,SSE,165,2.0,4.0,43,0.00,,,0.00,weatherlink.com 1.10,2013-02-18 05:11:00,
2013-02-18 00:26:00,33.1,12.0,30.35,SW,218,2.0,4.0,42,0.00,,,0.00,weatherlink.com 1.10,2013-02-18 05:26:00,
2013-02-18 00:41:00,33.1,13.0,30.35,WSW,257,1.0,5.0,43,0.00,,,0.00,weatherlink.com 1.10,2013-02-18 05:41:00,
2013-02-18 00:56:00,33.3,12.0,30.35,SW,225,4.0,6.0,41,0.00,,,0.00,weatherlink.com 1.10,2013-02-18 05:56:00,
2013-02-18 01:11:00,33.1,12.0,30.35,SW,215,2.0,6.0,42,0.00,,,0.00,weatherlink.com 1.10,2013-02-18 06:11:00,
2013-02-18 01:26:00,32.2,12.0,30.35,SSW,202,2.0,4.0,44,0.00,,,0.00,weatherlink.com 1.10,2013-02-18 06:26:00,
2013-02-18 01:41:00,32.0,12.0,30.35,SSW,209,3.0,5.0,44,0.00,,,0.00,weatherlink.com 1.10,2013-02-18 06:41:00,
2013-02-18 01:56:00,32.2,12.0,30.35,SW,219,2.0,6.0,44,0.00,,,0.00,weatherlink.com 1.10,2013-02-18 06:56:00,
2013-02-18 02:11:00,31.6,12.0,30.35,West,260,2.0,4.0,45,0.00,,,0.00,weatherlink.com 1.10,2013-02-18 07:11:00,
2013-02-18 02:26:00,31.8,13.0,30.35,South,172,2.0,4.0,46,0.00,,,0.00,weatherlink.com 1.10,2013-02-18 07:26:00,
2013-02-18 02:41:00,31.4,13.0,30.35,East,96,2.0,3.0,46,0.00,,,0.00,weatherlink.com 1.10,2013-02-18 07:41:00,
2013-02-18 02:56:00,31.0,13.0,30.35,ESE,122,3.0,4.0,47,0.00,,,0.00,weatherlink.com 1.10,2013-02-18 07:56:00,
2013-02-18 03:11:00,32.2,13.0,30.35,SSE,156,2.0,5.0,45,0.00,,,0.00,weatherlink.com 1.10,2013-02-18 08:11:00,
2013-02-18 03:27:00,31.9,13.0,30.36,East,95,1.0,5.0,45,0.00,,,0.00,weatherlink.com 1.10,2013-02-18 08:27:00,
2013-02-18 03:41:00,30.3,12.0,30.36,East,81,3.0,5.0,46,0.00,,,0.00,weatherlink.com 1.10,2013-02-18 08:41:00,
2013-02-18 03:56:00,30.5,12.0,30.36,East,86,4.0,6.0,46,0.00,,,0.00,weatherlink.com 1.10,2013-02-18 08:56:00,
2013-02-18 04:11:00,31.0,12.0,30.36,East,84,4.0,4.0,46,0.00,,,0.00,weatherlink.com 1.10,2013-02-18 09:11:00,
2013-02-18 04:26:00,30.5,12.0,30.36,East,81,4.0,4.0,46,0.00,,,0.00,weatherlink.com 1.10,2013-02-18 09:26:00,
2013-02-18 04:56:00,30.2,12.0,30.36,ENE,59,3.0,8.0,47,0.00,,,0.00,weatherlink.com 1.10,2013-02-18 09:56:00,
2013-02-18 05:12:00,29.9,13.0,30.37,ENE,77,3.0,6.0,49,0.00,,,0.00,weatherlink.com 1.10,2013-02-18 10:12:00,
2013-02-18 05:26:00,29.6,14.0,30.37,ENE,72,5.0,7.0,53,0.00,,,0.00,weatherlink.com 1.10,2013-02-18 10:26:00,
2013-02-18 05:42:00,28.8,16.0,30.37,ENE,63,6.0,9.0,59,0.00,,,0.00,weatherlink.com 1.10,2013-02-18 10:42:00,
2013-02-18 05:57:00,28.4,16.0,30.38,East,95,6.0,11.0,61,0.00,,,0.00,weatherlink.com 1.10,2013-02-18 10:57:00,
2013-02-18 06:12:00,28.2,17.0,30.38,East,94,5.0,10.0,63,0.00,,,0.00,weatherlink.com 1.10,2013-02-18 11:12:00,
2013-02-18 06:42:00,27.8,18.0,30.38,ENE,73,5.0,10.0,66,0.00,,,0.00,weatherlink.com 1.10,2013-02-18 11:42:00,
2013-02-18 06:57:00,27.7,18.0,30.38,East,81,6.0,9.0,68,0.00,,,0.00,weatherlink.com 1.10,2013-02-18 11:57:00,
2013-02-18 08:57:00,31.1,19.0,30.40,East,90,6.0,9.0,62,0.00,,,0.00,weatherlink.com 1.10,2013-02-18 13:57:00,
2013-02-18 09:12:00,32.9,20.0,30.40,SE,126,3.0,7.0,60,0.00,,,0.00,weatherlink.com 1.10,2013-02-18 14:12:00,
2013-02-18 09:27:00,35.6,21.0,30.40,ESE,122,2.0,6.0,55,0.00,,,0.00,weatherlink.com 1.10,2013-02-18 14:27:00,
2013-02-18 09:42:00,38.2,22.0,30.40,ENE,77,0.0,3.0,52,0.00,,,0.00,weatherlink.com 1.10,2013-02-18 14:42:00,
2013-02-18 09:57:00,38.4,20.0,30.39,ENE,66,1.0,6.0,48,0.00,,,0.00,weatherlink.com 1.10,2013-02-18 14:57:00,
2013-02-18 10:12:00,39.4,21.0,30.39,ESE,113,6.0,8.0,48,0.00,,,0.00,weatherlink.com 1.10,2013-02-18 15:12:00,
2013-02-18 10:27:00,40.0,22.0,30.39,ESE,103,7.0,8.0,48,0.00,,,0.00,weatherlink.com 1.10,2013-02-18 15:27:00,
2013-02-18 10:42:00,40.4,21.0,30.39,SE,128,3.0,8.0,47,0.00,,,0.00,weatherlink.com 1.10,2013-02-18 15:42:00,
2013-02-18 10:57:00,43.1,22.0,30.38,East,101,6.0,9.0,44,0.00,,,0.00,weatherlink.com 1.10,2013-02-18 15:57:00,
2013-02-18 11:12:00,44.5,22.0,30.38,ESE,112,7.0,10.0,41,0.00,,,0.00,weatherlink.com 1.10,2013-02-18 16:12:00,
2013-02-18 11:28:00,46.1,23.0,30.37,ESE,107,5.0,11.0,40,0.00,,,0.00,weatherlink.com 1.10,2013-02-18 16:28:00,
2013-02-18 11:42:00,48.4,22.0,30.36,ESE,104,12.0,19.0,36,0.00,,,0.00,weatherlink.com 1.10,2013-02-18 16:42:00,
2013-02-18 11:57:00,48.9,21.0,30.36,SSE,158,6.0,17.0,34,0.00,,,0.00,weatherlink.com 1.10,2013-02-18 16:57:00,
2013-02-18 12:12:00,50.9,23.0,30.35,South,172,7.0,13.0,33,0.00,,,0.00,weatherlink.com 1.10,2013-02-18 17:12:00,
2013-02-18 12:28:00,51.2,24.0,30.34,NE,45,5.0,13.0,35,0.00,,,0.00,weatherlink.com 1.10,2013-02-18 17:28:00,
2013-02-18 12:43:00,52.8,24.0,30.33,SSW,197,6.0,20.0,32,0.00,,,0.00,weatherlink.com 1.10,2013-02-18 17:43:00,
2013-02-18 12:58:00,52.8,24.0,30.32,SSE,157,9.0,27.0,32,0.00,,,0.00,weatherlink.com 1.10,2013-02-18 17:58:00,
2013-02-18 13:28:00,52.8,24.0,30.29,SSW,195,6.0,20.0,32,0.00,,,0.00,weatherlink.com 1.10,2013-02-18 18:28:00,
2013-02-18 13:43:00,53.4,25.0,30.28,ESE,120,5.0,20.0,33,0.00,,,0.00,weatherlink.com 1.10,2013-02-18 18:43:00,
2013-02-18 13:58:00,53.3,25.0,30.27,SSE,149,7.0,24.0,33,0.00,,,0.00,weatherlink.com 1.10,2013-02-18 18:58:00,
2013-02-18 14:13:00,53.7,25.0,30.25,South,184,9.0,23.0,33,0.00,,,0.00,weatherlink.com 1.10,2013-02-18 19:13:00,
2013-02-18 14:28:00,54.1,25.0,30.25,South,172,5.0,21.0,33,0.00,,,0.00,weatherlink.com 1.10,2013-02-18 19:28:00,
2013-02-18 14:43:00,54.9,26.0,30.24,South,177,10.0,21.0,33,0.00,,,0.00,weatherlink.com 1.10,2013-02-18 19:43:00,
2013-02-18 14:58:00,55.8,26.0,30.23,NE,49,4.0,15.0,32,0.00,,,0.00,weatherlink.com 1.10,2013-02-18 19:58:00,
2013-02-18 15:13:00,56.6,26.0,30.23,ESE,106,11.0,18.0,31,0.00,,,0.00,weatherlink.com 1.10,2013-02-18 20:13:00,
2013-02-18 15:28:00,56.7,25.0,30.22,SE,142,6.0,24.0,30,0.00,,,0.00,weatherlink.com 1.10,2013-02-18 20:28:00,
2013-02-18 15:43:00,57.0,26.0,30.22,SSW,202,11.0,23.0,30,0.00,,,0.00,weatherlink.com 1.10,2013-02-18 20:43:00,
2013-02-18 15:58:00,57.0,26.0,30.22,NNW,340,1.0,20.0,30,0.00,,,0.00,weatherlink.com 1.10,2013-02-18 20:58:00,
2013-02-18 16:13:00,58.0,26.0,30.21,SSE,163,11.0,16.0,29,0.00,,,0.00,weatherlink.com 1.10,2013-02-18 21:13:00,
2013-02-18 16:28:00,58.7,26.0,30.20,SW,233,7.0,13.0,29,0.00,,,0.00,weatherlink.com 1.10,2013-02-18 21:28:00,
2013-02-18 16:43:00,58.1,27.0,30.19,SSE,165,8.0,19.0,30,0.00,,,0.00,weatherlink.com 1.10,2013-02-18 21:43:00,
2013-02-18 16:59:00,57.9,26.0,30.18,SSE,148,5.0,20.0,30,0.00,,,0.00,weatherlink.com 1.10,2013-02-18 21:59:00,
2013-02-18 17:13:00,58.2,26.0,30.18,South,171,9.0,15.0,29,0.00,,,0.00,weatherlink.com 1.10,2013-02-18 22:13:00,
2013-02-18 17:28:00,57.7,26.0,30.17,ESE,117,16.0,18.0,30,0.00,,,0.00,weatherlink.com 1.10,2013-02-18 22:28:00,
2013-02-18 17:44:00,57.6,26.0,30.16,SSE,163,7.0,15.0,30,0.00,,,0.00,weatherlink.com 1.10,2013-02-18 22:44:00,
2013-02-18 17:58:00,56.5,26.0,30.16,East,93,6.0,12.0,31,0.00,,,0.00,weatherlink.com 1.10,2013-02-18 22:58:00,
2013-02-18 18:14:00,55.9,26.0,30.15,SSE,150,9.0,11.0,32,0.00,,,0.00,weatherlink.com 1.10,2013-02-18 23:14:00,
2013-02-18 18:28:00,55.5,26.0,30.15,NE,56,5.0,15.0,32,0.00,,,0.00,weatherlink.com 1.10,2013-02-18 23:28:00,
2013-02-18 18:43:00,55.1,26.0,30.15,South,176,6.0,14.0,33,0.00,,,0.00,weatherlink.com 1.10,2013-02-18 23:43:00,
2013-02-18 18:59:00,54.6,27.0,30.15,South,185,7.0,12.0,34,0.00,,,0.00,weatherlink.com 1.10,2013-02-18 23:59:00,
2013-02-18 19:14:00,54.4,26.0,30.14,SSW,202,9.0,11.0,34,0.00,,,0.00,weatherlink.com 1.10,2013-02-19 00:14:00,
2013-02-18 19:29:00,54.0,27.0,30.14,SSW,200,6.0,14.0,35,0.00,,,0.00,weatherlink.com 1.10,2013-02-19 00:29:00,
2013-02-18 19:44:00,53.8,26.0,30.13,South,171,17.0,19.0,34,0.00,,,0.00,weatherlink.com 1.10,2013-02-19 00:44:00,
2013-02-18 19:59:00,53.7,26.0,30.13,WSW,237,12.0,20.0,34,0.00,,,0.00,weatherlink.com 1.10,2013-02-19 00:59:00,
2013-02-18 20:14:00,53.5,26.0,30.13,SSW,203,7.0,17.0,34,0.00,,,0.00,weatherlink.com 1.10,2013-02-19 01:14:00,
2013-02-18 20:29:00,52.9,25.0,30.12,SE,146,12.0,20.0,34,0.00,,,0.00,weatherlink.com 1.10,2013-02-19 01:29:00,
2013-02-18 20:44:00,52.5,25.0,30.11,South,169,12.0,23.0,35,0.00,,,0.00,weatherlink.com 1.10,2013-02-19 01:44:00,
2013-02-18 20:59:00,52.1,25.0,30.09,ENE,77,13.0,26.0,35,0.00,,,0.00,weatherlink.com 1.10,2013-02-19 01:59:00,
2013-02-18 21:14:00,51.9,25.0,30.09,South,174,8.0,25.0,35,0.00,,,0.00,weatherlink.com 1.10,2013-02-19 02:14:00,
2013-02-18 21:29:00,51.4,25.0,30.09,SSE,151,6.0,24.0,36,0.00,,,0.00,weatherlink.com 1.10,2013-02-19 02:29:00,
2013-02-18 21:44:00,50.7,25.0,30.09,West,264,9.0,11.0,37,0.00,,,0.00,weatherlink.com 1.10,2013-02-19 02:44:00,
2013-02-18 21:59:00,50.4,25.0,30.09,East,94,8.0,15.0,37,0.00,,,0.00,weatherlink.com 1.10,2013-02-19 02:59:00,
2013-02-18 22:14:00,50.4,25.0,30.09,South,184,5.0,11.0,37,0.00,,,0.00,weatherlink.com 1.10,2013-02-19 03:14:00,
2013-02-18 22:29:00,50.2,25.0,30.09,SSE,150,5.0,15.0,37,0.00,,,0.00,weatherlink.com 1.10,2013-02-19 03:29:00,
2013-02-18 22:44:00,50.2,25.0,30.07,East,101,6.0,18.0,37,0.00,,,0.00,weatherlink.com 1.10,2013-02-19 03:44:00,
2013-02-18 22:59:00,50.0,24.0,30.06,SSE,153,5.0,19.0,37,0.00,,,0.00,weatherlink.com 1.10,2013-02-19 03:59:00,
2013-02-18 23:14:00,50.1,25.0,30.07,SSE,160,13.0,20.0,37,0.00,,,0.00,weatherlink.com 1.10,2013-02-19 04:14:00,
2013-02-18 23:29:00,50.2,24.0,30.07,SE,131,9.0,21.0,36,0.00,,,0.00,weatherlink.com 1.10,2013-02-19 04:29:00,
2013-02-18 23:44:00,50.3,24.0,30.06,SSW,207,15.0,35.0,36,0.00,,,0.00,weatherlink.com 1.10,2013-02-19 04:44:00,
2013-02-18 23:59:00,50.2,25.0,30.06,SSW,198,19.0,25.0,37,0.00,,,0.00,weatherlink.com 1.10,2013-02-19 04:59:00,